TimeCST,TemperatureF,Dew PointF,Humidity,Sea Level PressureIn,VisibilityMPH,Wind Direction,Wind SpeedMPH,Gust SpeedMPH,PrecipitationIn,Events,Conditions,WindDirDegrees,DateUTC
12:15 AM,20.7,16.7,85,30.17,10.0,North,12.7,-,N/A,,Overcast,360,2012-12-26 06:15:00
12:35 AM,20.8,16.9,85,30.17,10.0,North,12.7,-,N/A,,Overcast,10,2012-12-26 06:35:00
12:55 AM,21.2,17.6,86,30.17,10.0,North,13.8,18.4,N/A,,Overcast,10,2012-12-26 06:55:00
1:15 AM,21.2,17.6,86,30.17,10.0,North,12.7,-,N/A,,Overcast,360,2012-12-26 07:15:00
1:35 AM,21.2,17.6,86,30.15,10.0,North,13.8,-,N/A,,Overcast,360,2012-12-26 07:35:00
1:55 AM,21.7,18.3,87,30.14,10.0,North,15.0,-,N/A,,Overcast,360,2012-12-26 07:55:00
2:15 AM,22.1,18.5,86,30.14,10.0,North,16.1,-,N/A,,Overcast,360,2012-12-26 08:15:00
2:35 AM,22.1,18.7,87,30.13,10.0,North,15.0,-,N/A,,Overcast,360,2012-12-26 08:35:00
2:55 AM,22.1,18.9,87,30.13,10.0,North,15.0,-,N/A,,Overcast,360,2012-12-26 08:55:00
3:15 AM,22.1,18.7,87,30.12,10.0,North,15.0,-,N/A,,Overcast,360,2012-12-26 09:15:00
3:35 AM,21.7,18.5,87,30.12,10.0,North,13.8,-,N/A,,Scattered Clouds,360,2012-12-26 09:35:00
3:55 AM,21.7,18.5,87,30.10,10.0,North,15.0,-,N/A,,Clear,360,2012-12-26 09:55:00
4:15 AM,21.7,18.9,89,30.09,10.0,North,15.0,-,N/A,,Clear,360,2012-12-26 10:15:00
4:35 AM,21.9,18.9,88,30.09,10.0,North,15.0,-,N/A,,Clear,360,2012-12-26 10:35:00
4:55 AM,21.9,19.0,89,30.09,10.0,North,13.8,-,N/A,,Clear,360,2012-12-26 10:55:00
5:15 AM,21.9,19.0,89,30.09,10.0,North,15.0,-,N/A,,Scattered Clouds,360,2012-12-26 11:15:00
5:35 AM,22.3,19.4,89,30.09,10.0,North,13.8,-,N/A,,Overcast,360,2012-12-26 11:35:00
5:55 AM,22.1,19.4,89,30.10,10.0,North,15.0,-,N/A,,Overcast,350,2012-12-26 11:55:00
6:15 AM,22.8,19.4,87,30.10,10.0,North,15.0,-,N/A,,Overcast,360,2012-12-26 12:15:00
6:35 AM,23.0,20.1,89,30.10,10.0,North,15.0,-,N/A,,Overcast,350,2012-12-26 12:35:00
6:55 AM,23.0,20.1,89,30.09,10.0,North,15.0,18.4,N/A,,Overcast,350,2012-12-26 12:55:00
7:15 AM,23.0,19.9,88,30.09,10.0,North,15.0,-,N/A,,Overcast,350,2012-12-26 13:15:00
7:35 AM,23.0,19.9,88,30.09,10.0,NNW,13.8,-,N/A,,Overcast,340,2012-12-26 13:35:00
7:55 AM,23.4,20.3,88,30.09,10.0,North,16.1,19.6,N/A,,Overcast,350,2012-12-26 13:55:00
8:15 AM,23.9,20.7,87,30.09,10.0,North,15.0,-,N/A,,Overcast,360,2012-12-26 14:15:00
8:35 AM,24.3,20.8,87,30.10,10.0,North,13.8,20.7,N/A,,Overcast,350,2012-12-26 14:35:00
8:55 AM,24.4,21.0,87,30.10,10.0,North,18.4,-,N/A,,Overcast,350,2012-12-26 14:55:00
9:15 AM,24.8,21.0,86,30.10,10.0,North,17.3,-,N/A,,Overcast,350,2012-12-26 15:15:00
9:35 AM,25.3,21.2,84,30.10,10.0,North,17.3,-,N/A,,Overcast,350,2012-12-26 15:35:00
9:55 AM,25.7,21.4,84,30.10,10.0,North,18.4,-,N/A,,Overcast,350,2012-12-26 15:55:00
10:15 AM,25.9,21.6,84,30.10,10.0,North,18.4,23.0,N/A,,Overcast,350,2012-12-26 16:15:00
10:35 AM,26.4,21.7,82,30.10,10.0,North,18.4,-,N/A,,Overcast,350,2012-12-26 16:35:00
10:55 AM,26.6,21.9,82,30.10,10.0,NNW,17.3,-,N/A,,Overcast,340,2012-12-26 16:55:00
11:15 AM,26.6,21.9,82,30.09,10.0,NNW,15.0,-,N/A,,Overcast,340,2012-12-26 17:15:00
11:35 AM,26.8,21.9,82,30.08,10.0,NNW,16.1,19.6,N/A,,Overcast,340,2012-12-26 17:35:00
11:55 AM,27.3,22.5,82,30.07,10.0,NNW,17.3,21.9,N/A,,Overcast,340,2012-12-26 17:55:00
12:15 PM,27.3,22.1,81,30.07,10.0,NNW,18.4,-,N/A,,Overcast,340,2012-12-26 18:15:00
12:35 PM,27.5,22.3,81,30.06,10.0,NNW,17.3,23.0,N/A,,Overcast,340,2012-12-26 18:35:00
12:55 PM,27.5,22.1,80,30.06,10.0,NNW,16.1,21.9,N/A,,Overcast,340,2012-12-26 18:55:00
1:15 PM,27.5,22.1,80,30.06,10.0,NNW,17.3,-,N/A,,Overcast,340,2012-12-26 19:15:00
1:35 PM,27.3,21.9,80,30.07,10.0,NNW,16.1,-,N/A,,Overcast,330,2012-12-26 19:35:00
1:55 PM,26.6,21.4,81,30.08,10.0,NW,13.8,-,N/A,,Overcast,320,2012-12-26 19:55:00
2:15 PM,26.6,21.2,80,30.08,10.0,NW,13.8,21.9,N/A,,Overcast,320,2012-12-26 20:15:00
2:35 PM,26.2,21.0,81,30.09,10.0,NW,13.8,19.6,N/A,,Overcast,320,2012-12-26 20:35:00
2:55 PM,26.2,21.2,81,30.09,10.0,NW,13.8,20.7,N/A,,Overcast,320,2012-12-26 20:55:00
3:15 PM,26.1,21.0,81,30.10,10.0,NNW,16.1,20.7,N/A,,Overcast,330,2012-12-26 21:15:00
3:35 PM,26.1,21.0,81,30.10,10.0,NNW,12.7,19.6,N/A,,Overcast,330,2012-12-26 21:35:00
3:55 PM,25.9,21.2,82,30.11,10.0,NNW,15.0,-,N/A,,Overcast,330,2012-12-26 21:55:00
4:15 PM,25.3,20.8,83,30.11,10.0,NW,11.5,-,N/A,,Overcast,320,2012-12-26 22:15:00
4:35 PM,25.2,20.7,83,30.12,10.0,NNW,13.8,-,N/A,,Overcast,330,2012-12-26 22:35:00
4:55 PM,25.2,20.8,84,30.13,10.0,NNW,10.4,-,N/A,,Overcast,330,2012-12-26 22:55:00
5:15 PM,25.3,20.8,83,30.13,10.0,NNW,9.2,-,N/A,,Overcast,330,2012-12-26 23:15:00
5:35 PM,25.5,20.7,82,30.14,10.0,NNW,10.4,-,N/A,,Overcast,330,2012-12-26 23:35:00
5:55 PM,25.7,20.7,81,30.13,10.0,NNW,10.4,-,N/A,,Overcast,340,2012-12-26 23:55:00
6:15 PM,25.7,20.5,81,30.13,10.0,NNW,11.5,-,N/A,,Overcast,340,2012-12-27 00:15:00
6:35 PM,25.7,20.3,80,30.14,10.0,NNW,10.4,-,N/A,,Overcast,330,2012-12-27 00:35:00
6:55 PM,25.7,20.3,80,30.15,10.0,NNW,10.4,-,N/A,,Overcast,330,2012-12-27 00:55:00
7:15 PM,25.7,20.3,80,30.14,10.0,NNW,10.4,-,N/A,,Overcast,340,2012-12-27 01:15:00
7:35 PM,25.7,20.3,80,30.15,10.0,NNW,8.1,-,N/A,,Overcast,330,2012-12-27 01:35:00
7:55 PM,25.7,20.3,80,30.14,10.0,NNW,10.4,-,N/A,,Overcast,330,2012-12-27 01:55:00
8:15 PM,25.7,20.3,80,30.15,10.0,NNW,9.2,-,N/A,,Overcast,330,2012-12-27 02:15:00
8:35 PM,25.7,20.1,79,30.15,10.0,NNW,8.1,-,N/A,,Overcast,330,2012-12-27 02:35:00
8:55 PM,25.7,20.1,79,30.14,10.0,North,9.2,-,N/A,,Overcast,350,2012-12-27 02:55:00
9:15 PM,25.2,20.1,81,30.14,10.0,North,10.4,-,N/A,,Overcast,350,2012-12-27 03:15:00
9:35 PM,25.3,19.9,80,30.15,10.0,NNW,9.2,-,N/A,,Overcast,340,2012-12-27 03:35:00
9:55 PM,25.3,19.9,80,30.15,10.0,North,9.2,-,N/A,,Overcast,350,2012-12-27 03:55:00
10:15 PM,25.0,19.9,81,30.15,10.0,North,6.9,-,N/A,,Overcast,350,2012-12-27 04:15:00
10:35 PM,24.8,19.9,82,30.15,10.0,NW,4.6,-,N/A,,Overcast,320,2012-12-27 04:35:00
10:55 PM,23.9,19.9,85,30.15,10.0,NW,4.6,-,N/A,,Overcast,310,2012-12-27 04:55:00
11:15 PM,23.7,19.9,85,30.16,10.0,WNW,5.8,-,N/A,,Overcast,300,2012-12-27 05:15:00
11:35 PM,23.4,20.1,87,30.16,10.0,West,6.9,-,N/A,,Overcast,280,2012-12-27 05:35:00
11:55 PM,23.0,19.9,88,30.16,10.0,WNW,9.2,-,N/A,,Overcast,290,2012-12-27 05:55:00